Temperature
16 16 15 15 15 15 15 16 16 17 17 17 18 18 18 18 17 16 15 14 15 14 13 13 13 12 12 11 11 11 10 10 10 10 9 9 8 8 7 7 6 6 5 5
14 14 14 14 15 15 15 15 16 16 16 18 18 18 17 17 16 15 15 14 15 14 14 14 13 13 12 11 11 10 10 10 9 9 9 8 8 7 6 6 6 5 5 4
13 13 12 13 14 15 15 15 15 15 16 18 17 17 16 16 15 15 14 15 15 15 15 14 14 13 12 12 11 10 10 9 9 8 8 8 7 6 6 5 5 5 4 4
12 12 11 15 16 16 15 15 15 16 17 17 17 16 15 14 14 14 14 15 15 15 15 14 13 13 12 11 10 10 9 9 8 8 7 7 6 6 5 5 5 4 4 3
11 12 13 14 13 13 14 15 16 15 16 16 14 13 14 14 14 14 14 14 14 14 14 14 13 12 11 10 9 9 8 8 8 7 7 6 6 5 5 4 4 4 3 3
11 11 12 15 15 13 14 14 16 15 15 15 13 14 16 14 14 14 14 14 14 14 14 13 12 11 10 9 9 8 8 7 7 7 6 6 5 5 4 4 3 3 3 2
11 12 14 15 12 13 14 16 16 14 14 14 13 15 14 13 13 13 13 13 13 13 13 12 11 10 9 9 8 7 7 6 6 6 6 5 5 4 4 3 3 2 2 2
12 12 13 12 11 14 16 15 14 13 13 12 12 12 13 13 13 13 13 13 12 12 11 11 10 9 8 8 7 7 6 6 5 5 5 4 4 3 3 2 2 2 1 1
13 14 14 12 13 14 14 14 14 14 14 14 13 12 12 12 12 12 12 12 11 11 10 10 9 8 8 7 6 6 5 5 5 4 4 4 3 3 2 2 2 1 1 0
12 12 12 11 12 13 14 14 15 15 15 14 14 13 12 12 11 11 11 11 10 10 9 8 8 7 7 6 6 5 5 4 4 4 3 3 3 2 2 1 1 0 -0 -0
12 12 11 10 11 13 13 13 14 14 14 14 13 13 12 12 11 11 10 10 9 9 8 8 7 6 6 5 5 4 4 4 3 3 3 2 2 2 1 1 0 -0 -1 -1
13 13 13 14 14 14 13 13 14 13 13 13 13 12 12 11 11 10 10 9 8 7 7 6 6 5 5 4 4 4 3 3 3 2 2 1 1 1 1 0 -0 -1 -1 -2
14 13 13 14 14 14 13 14 13 13 13 12 12 11 11 11 10 9 9 8 7 6 6 5 5 4 4 4 3 3 3 2 2 1 1 1 0 -0 -1 -1 -1 -2 -2 -3
12 12 11 12 13 13 13 13 12 12 11 11 11 10 10 10 9 8 7 7 6 5 5 4 4 3 3 3 2 2 2 1 1 1 0 -0 -1 -1 -2 -2 -3 -3 -3 -4
10 11 12 12 12 12 12 11 11 11 10 10 10 9 9 9 8 7 6 5 5 4 4 3 3 3 2 2 2 1 1 0 0 -0 -1 -1 -2 -2 -3 -3 -4 -5 -5 -5
9 10 10 11 11 11 10 10 10 10 9 9 9 8 8 7 7 6 5 4 4 3 3 2 2 2 1 1 1 0 0 -0 -1 -1 -2 -2 -3 -4 -4 -5 -5 -6 -6 -6
8 7 7 8 9 9 10 10 10 9 9 8 8 7 6 6 5 4 3 3 3 2 2 2 1 1 1 0 -0 -1 -1 -1 -2 -2 -3 -3 -4 -5 -6 -6 -6 -7 -7 -8
11 11 11 11 10 9 9 8 8 8 7 7 6 6 5 4 4 3 2 2 1 1 1 1 0 0 -0 -1 -1 -1 -2 -2 -3 -4 -4 -5 -6 -6 -7 -7 -8 -8 -8 -9
9 9 9 9 9 9 8 7 7 6 6 5 5 4 4 3 2 2 1 1 1 0 0 -0 -0 -1 -1 -2 -2 -2 -3 -4 -4 -5 -6 -6 -7 -7 -8 -9 -9 -9 -10 -10
7 7 7 7 7 7 7 6 6 5 4 4 4 3 2 2 1 1 1 0 -0 -0 -1 -1 -1 -2 -2 -2 -3 -4 -4 -5 -6 -6 -7 -8 -8 -9 -9 -10 -10 -10 -11 -11
6 6 6 6 5 5 5 5 4 4 3 2 2 2 1 0 0 -0 -0 -1 -1 -1 -1 -2 -2 -3 -3 -4 -4 -5 -5 -6 -7 -8 -8 -9 -9 -10 -10 -10 -11 -11 -11 -12
4 4 4 4 4 3 3 3 3 2 1 1 1 1 0 -0 -1 -1 -1 -1 -2 -2 -2 -3 -3 -4 -4 -5 -5 -6 -7 -7 -8 -9 -9 -10 -10 -11 -11 -11 -12 -12 -12 -12
2 2 2 2 2 1 1 1 1 1 0 0 -0 -0 -1 -1 -1 -2 -2 -2 -3 -3 -3 -4 -4 -5 -5 -6 -7 -7 -8 -8 -9 -9 -10 -10 -11 -11 -12 -12 -12 -12 -12 -13
-0 0 0 0 0 -0 -1 -1 -1 -1 -1 -1 -1 -1 -2 -2 -2 -3 -3 -3 -3 -4 -4 -5 -5 -6 -6 -7 -7 -8 -8 -9 -9 -10 -10 -11 -11 -12 -12 -12 -12 -12 -13 -13
-1 -1 -1 -1 -1 -1 -1 -1 -1 -2 -2 -2 -2 -2 -3 -3 -3 -3 -4 -4 -4 -5 -5 -6 -6 -7 -7 -8 -8 -9 -9 -10 -10 -11 -11 -11 -12 -12 -12 -12 -12 -13 -13 -13
-2 -2 -2 -2 -2 -2 -2 -2 -2 -3 -3 -3 -3 -3 -4 -4 -4 -4 -5 -5 -5 -6 -6 -7 -7 -8 -8 -9 -9 -9 -10 -10 -10 -11 -11 -11 -12 -12 -12 -12 -13 -13 -13 -13
-2 -2 -2 -3 -3 -3 -3 -3 -3 -3 -3 -3 -4 -4 -4 -5 -5 -5 -6 -6 -6 -7 -7 -8 -8 -9 -9 -9 -10 -10 -10 -11 -11 -11 -11 -12 -12 -12 -12 -13 -13 -13 -13 -13
Wind_Speed
17 10 14 18 22 25 27 27 22 22 23 23 20 19 18 17 15 12 10 8 9 10 11 12 14 14 15 15 15 15 15 15 15 14 13 12 12 11 10 9 9 8 8 7
16 14 14 14 19 23 27 26 27 25 25 21 19 17 17 17 15 13 12 9 9 10 11 13 14 15 15 16 16 16 16 15 14 13 13 12 11 11 10 9 8 8 8 8
15 13 10 17 22 22 21 22 21 24 26 21 18 17 17 15 13 12 11 8 8 10 11 12 13 14 15 15 15 16 15 14 14 14 13 12 11 10 10 9 9 8 8 8
8 11 14 12 12 21 22 22 23 20 19 18 18 14 12 11 12 11 9 8 7 7 8 9 11 12 13 13 15 15 15 14 14 13 13 11 11 10 10 8 8 8 8 9
8 12 12 7 7 12 17 19 21 23 23 19 9 7 11 10 10 9 7 5 4 4 6 8 10 12 13 13 14 14 14 14 14 13 12 12 11 10 8 8 8 8 8 9
9 10 12 10 10 11 10 11 13 18 20 16 8 8 8 4 5 4 3 2 3 4 6 7 9 11 13 13 13 13 13 12 12 12 12 11 10 9 7 7 7 7 8 9
15 13 11 5 8 14 11 8 5 12 14 12 12 9 2 5 4 4 4 4 5 6 6 7 9 11 12 12 12 11 10 11 11 10 10 9 8 7 6 6 7 8 9 9
16 14 12 9 13 14 8 3 5 7 9 10 10 6 5 5 5 6 6 6 7 7 7 7 9 11 11 10 9 10 10 10 9 9 7 6 6 6 6 6 7 8 9 10
14 14 4 15 13 11 5 6 6 6 7 9 9 8 7 6 7 6 7 7 7 8 9 7 8 9 10 9 9 10 9 9 8 7 6 6 6 6 6 6 7 7 8 9
9 9 8 12 10 7 7 7 6 6 8 10 9 9 9 8 8 8 8 7 8 9 9 8 7 7 8 9 9 9 8 7 6 5 5 5 4 5 6 6 7 8 8 9
11 6 6 9 14 12 10 7 6 6 7 9 10 10 9 9 9 8 8 8 8 8 9 9 8 8 8 8 8 8 7 5 4 4 4 4 5 6 7 8 8 9 9 10
13 12 11 12 14 15 13 12 11 9 7 7 9 10 10 9 8 9 9 9 8 9 9 9 8 8 7 7 7 6 5 4 3 3 3 4 5 6 9 12 14 16 17 17
8 8 9 5 7 12 13 12 11 10 10 9 8 9 10 8 9 9 9 9 9 9 9 9 8 7 6 6 5 5 4 3 3 3 4 5 6 7 9 9 13 16 18 20
6 7 6 6 6 8 8 8 9 8 7 8 9 9 10 9 10 10 9 9 9 9 9 8 7 6 5 5 4 3 3 3 4 4 5 6 7 8 9 11 11 11 12 16
9 6 6 7 8 9 9 10 11 10 9 9 9 10 11 11 10 9 9 9 10 9 8 7 6 5 4 3 3 3 3 3 4 5 6 7 8 8 9 11 12 12 12 13
9 6 8 9 11 11 11 11 11 11 10 10 10 10 10 11 11 10 9 9 9 8 7 6 5 4 3 2 2 3 3 5 6 6 7 8 8 9 10 11 12 13 13 13
13 11 10 10 11 11 11 10 11 12 11 11 12 12 13 13 12 10 9 7 7 7 6 5 3 3 2 2 2 3 4 5 7 7 8 8 9 10 11 12 12 13 13 14
11 13 14 14 14 13 11 10 11 12 11 12 13 13 13 13 12 10 9 8 7 5 4 3 2 1 1 1 3 4 5 6 6 7 8 9 10 11 12 12 14 15 14 15
7 9 11 11 12 13 13 12 12 12 13 14 14 13 11 11 10 10 8 7 6 4 2 2 1 1 2 3 4 5 6 7 8 9 9 12 13 12 12 13 14 14 15 14
10 12 13 13 13 13 14 14 14 14 13 13 14 13 12 10 9 8 7 5 3 2 1 0 1 2 3 5 6 6 7 9 10 10 11 11 12 13 13 13 14 15 14 14
14 15 16 16 16 15 15 15 15 15 13 13 13 13 11 9 7 6 5 3 2 1 1 2 3 4 4 6 8 8 8 9 10 11 11 12 12 13 13 14 14 14 14 14
15 16 18 18 18 16 13 13 15 15 14 13 12 11 10 8 6 4 3 2 1 2 3 3 4 6 8 10 8 8 9 10 11 11 11 12 12 13 14 14 14 14 14 14
16 17 18 18 18 17 16 14 14 13 13 12 10 9 8 5 3 2 2 1 1 4 5 4 7 11 13 10 8 9 10 11 11 11 12 12 12 13 13 15 14 14 14 14
18 18 18 18 18 18 16 13 12 11 11 10 8 7 6 4 3 2 1 2 4 6 5 7 11 13 13 8 8 9 10 10 11 11 12 12 12 13 13 14 14 14 14 16
18 18 18 17 16 13 13 13 12 11 10 8 7 6 4 3 1 1 2 3 6 7 6 8 11 13 10 8 9 9 10 10 12 12 12 12 12 13 13 13 14 14 14 14
16 14 13 13 11 10 9 8 8 7 6 6 5 3 3 2 2 2 3 4 6 8 7 7 8 9 8 9 10 10 10 11 12 12 12 13 14 14 14 14 16 14 14 14
15 13 12 11 9 8 8 7 7 6 5 4 3 2 2 2 2 3 4 5 5 6 7 7 8 8 9 9 10 10 11 11 11 12 12 12 13 13 14 15 14 14 14 14
Wind_Direction
228 211 189 203 209 211 218 227 239 248 251 255 256 260 267 275 280 279 270 246 223 212 206 200 198 198 196 193 189 184 183 184 184 181 177 175 175 177 179 185 193 199 207 218
217 208 205 216 218 217 222 230 240 251 258 260 264 267 267 268 268 265 262 249 229 215 208 202 199 197 194 193 189 185 186 187 181 176 174 176 177 178 182 190 196 203 215 226
214 204 210 234 225 220 223 227 234 242 250 257 260 259 259 262 262 259 256 247 229 218 211 206 200 196 194 190 185 185 187 184 179 176 176 177 177 181 189 196 202 213 224 233
192 181 221 238 216 219 226 232 230 238 249 254 258 265 265 258 256 256 252 247 233 217 208 203 196 191 186 182 182 184 185 182 178 176 176 176 180 188 195 201 209 221 231 239
193 213 237 233 206 202 213 235 233 235 244 251 256 269 264 246 236 243 249 242 227 204 193 184 182 177 173 175 178 182 184 181 178 176 175 177 185 193 197 205 218 228 237 245
200 213 229 230 192 179 188 241 233 223 233 238 202 238 252 183 183 196 187 170 158 153 155 161 165 166 167 171 176 182 182 178 174 174 176 181 188 193 200 211 226 235 244 250
210 221 237 209 152 156 193 233 198 205 217 209 202 223 165 136 141 141 134 129 132 134 137 146 153 158 163 167 175 173 168 165 167 172 177 181 185 194 205 218 232 243 253 257
210 219 224 166 159 186 209 154 170 186 195 194 198 184 158 152 147 144 136 131 133 129 125 134 148 154 156 160 157 154 155 158 162 168 168 174 187 201 215 227 241 252 260 266
204 216 187 170 191 203 183 180 185 184 183 180 180 184 174 166 159 152 145 138 136 131 125 130 144 152 149 146 145 147 150 155 159 163 170 183 200 213 226 235 244 257 264 270
199 212 193 194 205 206 200 198 189 182 172 172 176 174 169 163 159 154 150 145 141 138 134 133 138 140 136 137 143 147 151 155 160 171 185 200 212 222 232 241 249 258 265 270
208 198 191 215 216 212 204 201 182 173 179 180 170 168 169 165 163 157 149 147 149 146 140 137 134 130 131 138 145 149 153 158 170 189 207 225 232 236 242 248 250 257 266 269
208 197 195 209 209 203 199 202 193 177 171 175 176 168 162 160 157 153 150 148 147 145 141 138 136 133 135 142 150 153 160 175 194 213 229 242 255 262 242 247 259 259 262 267
204 184 199 191 187 188 196 198 187 180 172 165 165 160 154 149 150 148 148 150 149 145 141 139 137 136 140 146 154 165 182 201 220 234 246 255 262 271 280 269 256 260 264 268
179 155 172 185 180 175 170 160 152 148 146 148 147 145 142 138 141 146 148 146 142 139 138 139 138 140 145 152 164 185 209 224 239 251 259 264 268 271 277 283 286 282 273 272
188 187 173 150 139 138 138 138 139 141 138 135 138 141 142 141 142 138 135 134 133 133 135 138 140 142 149 163 185 213 235 247 256 265 267 269 271 273 275 277 280 284 287 283
169 149 143 147 152 150 150 154 153 152 148 142 139 137 134 129 126 125 130 137 139 140 141 141 143 143 151 173 205 238 252 255 266 273 273 273 274 275 277 279 280 282 283 286
158 168 170 168 168 166 166 164 157 150 145 141 136 130 126 124 122 123 123 123 122 124 130 136 137 135 155 199 245 263 270 270 270 273 273 275 277 277 278 279 280 282 283 286
189 186 180 172 168 161 152 143 139 137 135 133 131 131 132 133 132 129 125 120 114 111 112 117 118 131 195 254 272 276 275 276 276 277 278 277 279 279 280 280 282 284 286 287
151 149 149 149 149 145 139 135 131 127 127 130 129 127 124 123 124 125 126 126 126 123 113 101 93 288 284 284 288 279 277 278 280 280 281 282 283 281 281 282 283 284 286 287
131 127 124 122 123 125 126 125 122 120 122 125 121 118 116 117 120 122 120 112 101 95 94 14 308 293 292 290 289 282 279 281 283 285 285 283 283 284 283 284 284 285 286 286
128 124 120 117 113 112 118 122 121 119 120 121 120 120 118 117 117 118 117 113 94 75 351 309 302 299 298 296 292 286 285 285 285 285 286 286 286 286 286 286 286 286 286 286
123 121 119 116 113 109 109 112 114 115 114 111 111 114 116 115 111 103 97 110 71 347 321 301 298 299 304 302 293 288 287 287 287 287 286 286 287 287 287 287 287 287 286 286
117 117 115 114 112 110 104 104 107 110 110 111 112 112 111 110 107 109 95 63 343 321 311 298 304 307 309 304 293 290 289 289 288 287 287 287 286 286 287 287 287 287 287 287
111 110 110 110 110 107 104 101 99 98 99 97 95 97 100 100 88 76 34 328 321 314 303 302 308 310 311 302 294 291 290 289 288 288 288 287 286 286 286 287 287 287 287 287
109 109 110 110 107 106 109 108 102 99 97 95 91 84 75 67 66 4 328 316 317 314 306 306 309 311 307 296 293 291 289 287 287 290 289 289 289 289 288 288 288 288 287 286
104 102 99 99 103 109 112 109 106 103 102 99 91 78 62 46 17 336 320 314 311 310 308 304 304 303 298 294 292 292 291 292 292 291 289 289 289 289 288 288 289 288 287 285
99 99 98 94 91 94 99 100 100 97 94 97 92 67 33 6 345 332 321 314 312 308 305 302 301 298 297 296 295 294 293 292 291 291 291 290 290 290 290 290 290 289 288 287
Height
1419 1422 1427 1431 1435 1439 1440 1436 1437 1433 1433 1431 1432 1433 1435 1435 1436 1437 1437 1437 1437 1437 1439 1440 1443 1446 1449 1453 1456 1460 1464 1469 1472 1476 1480 1483 1485 1488 1490 1491 1493 1493 1494 1493
1423 1424 1426 1428 1427 1429 1431 1431 1430 1429 1427 1424 1427 1429 1430 1430 1431 1431 1431 1431 1431 1432 1434 1435 1437 1440 1444 1447 1451 1455 1459 1464 1468 1472 1475 1478 1481 1483 1485 1487 1488 1488 1488 1488
1419 1423 1429 1426 1419 1422 1423 1423 1424 1425 1420 1419 1422 1423 1424 1425 1425 1425 1425 1426 1426 1427 1428 1430 1432 1435 1438 1442 1446 1450 1454 1459 1463 1467 1470 1474 1476 1479 1481 1482 1483 1483 1483 1482
1417 1426 1429 1408 1405 1409 1413 1414 1416 1415 1413 1414 1415 1417 1418 1419 1420 1419 1420 1421 1422 1423 1424 1426 1428 1431 1434 1438 1441 1445 1449 1453 1458 1462 1466 1469 1472 1474 1476 1477 1478 1478 1477 1477
1416 1414 1407 1405 1406 1406 1409 1407 1405 1408 1408 1409 1413 1415 1413 1413 1413 1414 1416 1417 1418 1419 1421 1423 1425 1427 1430 1433 1437 1440 1444 1448 1453 1457 1461 1464 1467 1469 1471 1472 1472 1472 1471 1470
1410 1410 1406 1394 1395 1399 1405 1403 1396 1399 1400 1404 1410 1412 1406 1407 1409 1410 1412 1413 1415 1416 1418 1420 1422 1424 1427 1430 1433 1436 1440 1445 1449 1453 1457 1460 1462 1464 1465 1466 1466 1466 1465 1463
1400 1400 1390 1388 1393 1398 1403 1392 1388 1391 1394 1398 1403 1402 1404 1404 1406 1408 1409 1411 1413 1414 1416 1418 1420 1422 1424 1427 1431 1434 1438 1442 1446 1450 1453 1456 1458 1459 1460 1460 1460 1459 1458 1456
1391 1393 1389 1386 1391 1389 1383 1384 1385 1387 1390 1393 1396 1398 1400 1402 1404 1406 1408 1410 1411 1413 1415 1416 1418 1421 1423 1426 1429 1433 1436 1439 1443 1446 1449 1452 1453 1454 1455 1454 1453 1452 1450 1448
1373 1373 1371 1376 1377 1377 1379 1382 1383 1385 1387 1389 1392 1395 1398 1400 1402 1405 1407 1409 1410 1412 1414 1416 1418 1421 1423 1426 1429 1432 1435 1438 1441 1443 1446 1447 1448 1449 1449 1448 1447 1445 1443 1440
1369 1368 1369 1371 1372 1374 1376 1379 1380 1383 1385 1387 1389 1392 1395 1398 1400 1403 1405 1407 1409 1412 1413 1415 1418 1420 1423 1426 1428 1431 1434 1436 1439 1441 1442 1443 1443 1443 1442 1441 1440 1438 1435 1432
1360 1363 1366 1367 1367 1369 1373 1375 1378 1380 1382 1385 1387 1390 1393 1396 1398 1401 1404 1406 1409 1411 1413 1415 1418 1420 1423 1425 1428 1430 1432 1434 1436 1437 1438 1438 1438 1437 1436 1434 1433 1430 1427 1424
1350 1354 1357 1359 1361 1365 1368 1371 1373 1376 1379 1382 1385 1387 1390 1393 1397 1399 1402 1405 1407 1410 1412 1415 1417 1420 1422 1424 1427 1429 1430 1432 1433 1433 1433 1432 1431 1430 1428 1427 1425 1422 1419 1416
1344 1347 1351 1353 1356 1360 1363 1366 1370 1373 1376 1379 1382 1385 1388 1391 1394 1397 1400 1403 1406 1409 1412 1414 1417 1419 1421 1423 1425 1427 1428 1428 1428 1428 1427 1426 1425 1422 1420 1417 1415 1412 1410 1407
1341 1344 1348 1350 1353 1356 1359 1363 1366 1370 1373 1377 1380 1383 1386 1389 1393 1396 1399 1402 1405 1408 1411 1413 1416 1418 1420 1421 1423 1424 1424 1424 1424 1423 1422 1420 1418 1415 1412 1409 1405 1402 1400 1397
1337 1340 1343 1346 1349 1353 1356 1360 1363 1367 1370 1374 1378 1381 1384 1387 1391 1394 1397 1401 1404 1407 1410 1412 1414 1416 1418 1419 1420 1420 1420 1419 1418 1417 1415 1413 1410 1407 1404 1400 1396 1392 1389 1387
1333 1337 1340 1343 1346 1349 1353 1357 1360 1364 1368 1372 1376 1380 1383 1386 1390 1393 1396 1400 1403 1406 1408 1411 1412 1414 1415 1415 1416 1415 1415 1414 1412 1410 1408 1405 1403 1399 1396 1392 1388 1384 1381 1378
1328 1332 1336 1339 1343 1347 1350 1354 1358 1362 1366 1370 1374 1378 1382 1385 1389 1392 1396 1399 1402 1405 1407 1409 1410 1411 1411 1411 1411 1410 1409 1407 1406 1403 1400 1398 1394 1391 1387 1384 1380 1376 1372 1370
1323 1326 1330 1334 1338 1343 1348 1352 1357 1361 1365 1369 1374 1378 1381 1385 1388 1392 1395 1399 1402 1404 1405 1407 1407 1408 1408 1407 1406 1404 1403 1400 1398 1395 1392 1389 1386 1383 1379 1375 1371 1367 1363 1360
1320 1324 1328 1333 1337 1341 1346 1351 1356 1361 1365 1369 1373 1377 1381 1385 1389 1392 1395 1398 1400 1402 1403 1404 1404 1404 1403 1402 1400 1398 1396 1393 1390 1387 1384 1381 1377 1374 1370 1366 1362 1359 1355 1351
1318 1322 1327 1331 1336 1341 1346 1351 1356 1361 1365 1370 1374 1378 1382 1386 1389 1392 1395 1397 1399 1400 1400 1400 1400 1399 1397 1396 1394 1391 1388 1385 1382 1379 1375 1372 1368 1365 1361 1357 1354 1350 1346 1342
1316 1321 1326 1330 1336 1342 1347 1352 1356 1361 1366 1371 1375 1379 1383 1386 1389 1392 1394 1395 1396 1397 1396 1396 1395 1393 1391 1389 1386 1384 1381 1378 1374 1371 1367 1363 1360 1356 1352 1348 1344 1341 1337 1333
1316 1321 1326 1331 1336 1342 1349 1354 1359 1363 1368 1373 1377 1380 1383 1386 1389 1391 1392 1393 1393 1393 1392 1391 1389 1387 1385 1382 1379 1376 1373 1370 1366 1363 1359 1355 1351 1347 1343 1339 1335 1331 1328 1324
1318 1323 1328 1333 1339 1344 1351 1357 1362 1366 1371 1375 1378 1381 1384 1386 1387 1389 1389 1389 1389 1388 1386 1385 1383 1380 1378 1374 1371 1368 1365 1361 1358 1354 1350 1346 1342 1338 1334 1330 1326 1322 1318 1315
1321 1326 1332 1338 1343 1348 1354 1361 1365 1369 1373 1376 1379 1381 1383 1384 1385 1386 1386 1385 1384 1382 1380 1378 1376 1373 1370 1367 1364 1360 1356 1353 1349 1345 1341 1337 1334 1330 1326 1322 1317 1313 1310 1306
1326 1332 1337 1343 1348 1354 1359 1364 1367 1371 1374 1376 1379 1381 1382 1382 1383 1382 1381 1380 1378 1376 1374 1372 1369 1366 1363 1359 1356 1352 1348 1345 1341 1337 1334 1330 1326 1322 1317 1313 1309 1305 1301 1297
1333 1338 1344 1349 1354 1358 1362 1366 1369 1372 1374 1376 1378 1379 1379 1379 1379 1378 1377 1375 1373 1370 1368 1365 1362 1359 1355 1352 1348 1344 1341 1337 1333 1330 1326 1322 1318 1313 1309 1305 1301 1297 1292 1288
1340 1345 1350 1354 1359 1362 1365 1368 1370 1372 1374 1376 1376 1377 1376 1376 1375 1373 1372 1369 1367 1364 1361 1358 1355 1352 1348 1345 1341 1337 1334 1330 1326 1322 1318 1314 1310 1305 1301 1297 1292 1288 1284 1280